Regional Weather Roundup
Issued by NWS Kansas City/Pleasant Hill, MO

Home | Current Version | Previous Version | Text Only | Print | Product List | Glossary On
Versions: 1 2 3 4 5 6 7 8 9 10 11 12 13 14 15 16 17 18 19 20 21 22 23 24 25 26 27 28 29 30 31 32 33 34 35 36 37 38 39 40 41 42 43 44 45 46 47 48 49 50
000
ASUS43 KEAX 191110
RWREAX

WEATHER ROUNDUP FOR EASTERN KANSAS AND NORTHWEST MISSOURI
NATIONAL WEATHER SERVICE KANSAS CITY/PLEASANT HILL MO
500 AM CST FRI DEC 19 2014

KSZ040-057-103>105-MOZ028-029-037-043-191200-
...KANSAS CITY METROPOLITAN AREA...

CITY           SKY/WX    TMP DP  RH WIND       PRES   REMARKS
K.C. INTL      CLOUDY    30  29  96 NW3       30.24S FOG
K.C. DOWNTOWN  CLOUDY    33  30  88 N5        30.25S FOG     WCI  29
LEES SUMMIT    CLOUDY    31  30  96 CALM      30.24S
OLATHE - IXD   CLOUDY    31  29  92 CALM      30.24S
OLATHE - OJC   CLOUDY    31  29  92 CALM      30.23S
LAWRENCE       CLOUDY    32  28  85 N3        30.25S

$$

MOZ001>008-011>017-020>025-030>033-038>040-044>046-053-054-191200-
...NORTHERN AND CENTRAL MISSOURI...

CITY           SKY/WX    TMP DP  RH WIND       PRES   REMARKS
ST. JOSEPH     CLOUDY    30  27  88 S3        30.26F
MOSBY          FOG       32  32 100 N3        30.26S VSB 1/2
WARRENSBURG    FOG       32  32 100 CALM      30.25S VSB 1
WHITEMAN AFB   FOG       33  32  97 NE3       30.24S VSB 1/4
CLINTON        CLOUDY    36  34  93 NE5       30.24F FOG     WCI  32
SEDALIA        FOG       33  32  96 E3        30.25S VSB 3/4
WARSAW         NOT AVBL
MARSHALL       CLOUDY    34  32  93 E5        30.26F FOG     WCI  30
CHILLICOTHE      N/A     31  27  85 CALM      30.28F
MOBERLY        CLOUDY    30  27  86 E3        30.27S
KIRKSVILLE     CLOUDY    28  26  92 CALM      30.27S

$$

MOZ041-047>049-056>058-063>065-088>090-097-191200-
...EASTERN AND SOUTHERN MISSOURI...

CITY           SKY/WX    TMP DP  RH WIND       PRES   REMARKS
ST. LOUIS INTL CLOUDY    34  26  72 NE3       30.28F
SPIRIT OF STL  CLOUDY    33  28  81 CALM      30.28F
COLUMBIA       CLOUDY    32  30  92 E5        30.25S FOG     WCI  27
JEFFERSON CITY CLOUDY    33  31  92 E6        30.26F FOG     WCI  28
MEXICO         CLOUDY   N/A N/A N/A CALM      30.26F
HANNIBAL       CLOUDY    30  27  86 CALM      30.28S
ROLLA          FOG       32  31  96 NE5       30.21F VSB 1/4 WCI  27
LEBANON        CLOUDY    34  32  93 E3        30.20S FOG
OSAGE BEACH    CLOUDY    34  32  93 NE5       30.22F WCI  30
SPRINGFIELD    CLOUDY    37  36  96 NE8       30.16F FOG     WCI  31
BRANSON        CLOUDY    37  36  93 CALM      30.21R
NEVADA         FOG       34  34 100 N6        30.22F VSB 1/4 WCI  29
JOPLIN         FOG       36  35  96 N7        30.19F VSB 1/2 WCI  30
WEST PLAINS    FOG       35  33  92 NE7       30.20R VSB 3/4 WCI  29

$$

IAZ060-094-KSZ022-034>040-054-083-096-NEZ052-066-093-191200-
...KANSAS...SOUTHEAST NEBRASKA AND IOWA...

CITY           SKY/WX    TMP DP  RH WIND       PRES   REMARKS
TOPEKA         CLOUDY    31  29  92 VRB3      30.25F
MANHATTAN      CLOUDY    31  28  89 CALM      30.23F
EMPORIA        CLOUDY    29  28  96 N3        30.22F FOG
CHANUTE        CLOUDY    33  32  96 N6        30.22S FOG     WCI  28
WICHITA        CLOUDY    31  28  89 NE5       30.20F FOG     WCI  26
OMAHA          CLOUDY    31  28  89 SE6       30.23F WCI  25
LINCOLN        CLOUDY    31  28  89 S3        30.21F FOG
FALLS CITY     CLOUDY    29  26  89 SW5       30.24F WCI  24
LAMONI         CLOUDY    28  26  92 CALM      30.24S
DES MOINES     CLOUDY    28  24  85 S3        30.26S

$$



USA.gov is the U.S. government's official web portal to all federal, state and local government web resources and services.